Air Quality Table

TIMESTAMP NO2 SO2 O3 PM10 PM2.5 TEMP HUM AIRPRES WS WD NO
2022-10-04 17:00 0.58 µg/m3 0 µg/m3 76.94 µg/m3 13.03 µg/m3 6.27 µg/m3 23.47 °C 73.4 % 1,012.30 mbar 4.7 m/s 114.58 Deg 0.84 µg/m3
2022-10-04 16:00 0.69 µg/m3 -0.06 µg/m3 78.6 µg/m3 14.11 µg/m3 5.34 µg/m3 23.64 °C 74.03 % 1,012.19 mbar 5.24 m/s 117.15 Deg 0.83 µg/m3
2022-10-04 15:00 0.94 µg/m3 -0.04 µg/m3 78.97 µg/m3 8.54 µg/m3 4.89 µg/m3 24.13 °C 71.04 % 1,012.07 mbar 5.72 m/s 123.62 Deg 0.85 µg/m3
2022-10-04 14:00 1.47 µg/m3 -0.01 µg/m3 78.93 µg/m3 8.18 µg/m3 3.72 µg/m3 24.29 °C 68.59 % 1,012.07 mbar 5.94 m/s 146.95 Deg 1.05 µg/m3
2022-10-04 13:00 1.03 µg/m3 -0.01 µg/m3 77.22 µg/m3 8.28 µg/m3 4.56 µg/m3 24.64 °C 70.24 % 1,012.21 mbar 6.32 m/s 152.87 Deg 0.94 µg/m3
2022-10-04 12:00 1.33 µg/m3 -0.02 µg/m3 73.28 µg/m3 8.98 µg/m3 6.23 µg/m3 24.56 °C 72.36 % 1,012.13 mbar 5.78 m/s 162.72 Deg 0.98 µg/m3
2022-10-04 11:00 2.27 µg/m3 -0.01 µg/m3 73.18 µg/m3 13.28 µg/m3 5.64 µg/m3 24.97 °C 68.9 % 1,011.76 mbar 5.54 m/s 127.93 Deg 1.26 µg/m3
2022-10-04 10:00 1.2 µg/m3 -0.02 µg/m3 73.62 µg/m3 17.28 µg/m3 7.79 µg/m3 24.79 °C 68.89 % 1,011.31 mbar 5.38 m/s 125.95 Deg 0.97 µg/m3
2022-10-04 09:00 3.58 µg/m3 0.03 µg/m3 68.9 µg/m3 24.1 µg/m3 9.8 µg/m3 24.43 °C 74.6 % 1,010.82 mbar 4.15 m/s 140.35 Deg 1.43 µg/m3
2022-10-04 08:00 6.13 µg/m3 0.04 µg/m3 64.82 µg/m3 20.19 µg/m3 6.43 µg/m3 24.2 °C 77.62 % 1,010.29 mbar 2.28 m/s 260.87 Deg 1.51 µg/m3
2022-10-04 07:00 14.64 µg/m3 0.02 µg/m3 55.59 µg/m3 14.04 µg/m3 9.97 µg/m3 23.27 °C 79.66 % 1,009.80 mbar 1.59 m/s 321.03 Deg 1.92 µg/m3
2022-10-04 06:00 10.11 µg/m3 0.02 µg/m3 56.79 µg/m3 16.17 µg/m3 8.79 µg/m3 22.66 °C 81.64 % 1,009.29 mbar 1.55 m/s 290.72 Deg 1.1 µg/m3
2022-10-04 05:00 7.5 µg/m3 0.01 µg/m3 55.84 µg/m3 13.98 µg/m3 5.9 µg/m3 22.55 °C 88.74 % 1,008.97 mbar 1.51 m/s 271.68 Deg 0.88 µg/m3
2022-10-04 04:00 2.75 µg/m3 0.06 µg/m3 69.59 µg/m3 16.61 µg/m3 5.76 µg/m3 22.58 °C 92 % 1,008.66 mbar 1.93 m/s 256 Deg 0.8 µg/m3
2022-10-04 03:00 3.03 µg/m3 0.02 µg/m3 64.13 µg/m3 13.06 µg/m3 6.96 µg/m3 22.81 °C 89.48 % 1,008.73 mbar 1.87 m/s 153.37 Deg 0.88 µg/m3
2022-10-04 02:00 8.08 µg/m3 0.03 µg/m3 51.34 µg/m3 15.4 µg/m3 7.4 µg/m3 22.68 °C 85.86 % 1,008.81 mbar 0.89 m/s 218.8 Deg 0.85 µg/m3
2022-10-04 01:00 5.28 µg/m3 0.04 µg/m3 56.19 µg/m3 21.47 µg/m3 8.22 µg/m3 22.45 °C 86.25 % 1,008.91 mbar 1.35 m/s 273.67 Deg 0.88 µg/m3
2022-10-04 00:00 10.07 µg/m3 0.02 µg/m3 47.53 µg/m3 15.53 µg/m3 9.75 µg/m3 22.34 °C 87.59 % 1,008.86 mbar 0.99 m/s 225.23 Deg 0.97 µg/m3
2022-10-03 23:00 13.77 µg/m3 0.05 µg/m3 48.65 µg/m3 19.1 µg/m3 7.05 µg/m3 22.75 °C 85.59 % 1,008.96 mbar 1.06 m/s 240.98 Deg 1 µg/m3
2022-10-03 22:00 14.85 µg/m3 0.01 µg/m3 56.4 µg/m3 24.33 µg/m3 8.52 µg/m3 23.38 °C 85.32 % 1,009.04 mbar 1.12 m/s 329.97 Deg 1.18 µg/m3
2022-10-03 21:00 16.17 µg/m3 0.02 µg/m3 57.86 µg/m3 40.5 µg/m3 9.58 µg/m3 23.51 °C 89.88 % 1,009.12 mbar 1.59 m/s 330.25 Deg 1.26 µg/m3
2022-10-03 20:00 18.29 µg/m3 0.02 µg/m3 60.17 µg/m3 31.39 µg/m3 6.04 µg/m3 23.63 °C 88.13 % 1,008.99 mbar 1.98 m/s 345.35 Deg 1.5 µg/m3
2022-10-03 19:00 15.71 µg/m3 0.03 µg/m3 64.68 µg/m3 21.26 µg/m3 6.42 µg/m3 23.72 °C 83.96 % 1,008.71 mbar 2.23 m/s 255.23 Deg 1.9 µg/m3

It is to be noted that the data is provisional and subject to quality assurance procedures. For validated data kindly refer your request to contact.air@era.org.mt